www.pogodaiklimat.ru

Погода и климат >> Архив погоды >> Россия >> Мордовия >> Темников


ПОГОДА в Темникове

  • Прогноз погоды в Темникове
  • Монитор погоды в Темникове
  • Климат города

АРХИВ ПОГОДЫ в Темникове

Время (UTC), дата Ветер
(напр.,м/с)
 
Видим.   Явления Облачность Т
(С)
Тd
(С)
f
(%)
Тe
(С)
Тes
(С)
Комфортность P
(гПа)
Po
(гПа)
Тmin
(С)
Tmax
(С)
R
(мм)
R24
(мм)
S
(см)
09 17.11 З 2-5
{8}
20 км {ливн. осадки} 10/9 300 м
[Frnb As op]
+2.5 +0.4 86 -1 -1 1022.5 1005.2
12 17.11 З 4-7
{9}
20 км {ливн. осадки} 8/6 300 м
[Cb calv Ac trans]
+2.2 -1.8 75 -3 -2 1023.7 1006.2
15 17.11 ЮЗ 3-6
{7}
10 км 10/10 300 м
[Frnb]
+1.2 -2.0 79 -3 -3 1023.9 1006.4 +3.4 0.0
18 17.11 ЮЗ 3-5
{6}
10 км 6/4 600 м
[Sc Ac trans]
+0.1 -2.3 84 -5 -5 1023.1 1005.5
21 17.11 З 5-8
{11}
10 км 9/8 300 м
[St Ac As]
-0.3 -3.7 78 -6 -6 1023.3 1005.7
00 18.11 ЮЗ 4-6
{8}
10 км 10/8 300 м
[St Ac As]
0.0 -3.4 78 -5 -5 1022.4 1004.8
03 18.11 ЮЗ 4-6
{8}
10 км 10/10 300 м
[St]
+0.1 -2.9 80 -5 -5 1020.9 1003.3 -0.3
06 18.11 ЮЗ 4-7
{8}
4000 м слабый снег 10/10 300 м
[Frnb Ns]
0.0 -1.8 88 -6 -6 1021.1 1003.5
09 18.11 ЮЗ 3-5
{7}
20 км {снег} 10/10 300 м
[St]
+1.0 -1.6 83 -3 -3 1021.4 1003.9
12 18.11 ЮЗ 3-5
{7}
20 км {снег} 10/8 600 м
[Sc As op]
+1.4 -1.1 83 -3 -3 1021.2 1003.7
15 18.11 ЮЗ 2-4
{5}
10 км 10/10 300 м
[St]
+1.3 -0.9 85 -2 -2 1021.2 1003.7 +1.4 0.0
18 18.11 Ю 2-3
{5}
10 км 10/10 300 м
[St]
+1.4 -0.8 85 -2 -2 1020.8 1003.3
21 18.11 Ю 2-3
{4}
10 км 10/10 300 м
[St]
+1.5 -0.7 85 -2 -2 1020.5 1003.0
00 19.11 Ю 2-3
{4}
10 км 10/10 300 м
[St]
+1.0 -0.4 90 -3 -3 1019.9 1002.5
03 19.11 Ю 2-3
{4}
10 км 10/4 600 м
[Sc As trans]
+0.4 -1.3 88 -3 -3 1018.8 1001.4 +0.4
06 19.11 Ю 3-6
{7}
10 км 10/10 300 м
[St]
+0.6 -1.4 86 -4 -4 1018.7 1001.3
09 19.11 Ю 3-6
{7}
10 км 10/10 300 м
[St]
+1.2 -1.1 85 -3 -3 1017.5 1000.1
12 19.11 ЮВ 3-6
{8}
4000 м дымка 10/10 300 м
[St]
+1.2 +0.1 92 -3 -3 1016.1 998.7
15 19.11 ЮВ 3-5
{6}
4000 м слабый снег {дождь} 10/9 300 м
[Frnb As op]
+0.6 -0.2 94 -4 -4 1015.4 998.0 +1.4 0.5
18 19.11 ЮВ 3-5
{6}
4000 м слабый снег {дождь} 10/10 300 м
[Frnb Ns]
+0.5 -0.3 94 -4 -4 1013.6 996.3
21 19.11 ЮВ 3-4
{6}
4000 м слабый дождь {снег} 10/10 300 м
[Frnb Ns]
+1.4 +0.6 94 -3 -3 1012.8 995.5
00 20.11 ЮВ 2-4
{5}
4000 м слабый дождь {снег} 10/10 300 м
[Frnb Ns]
+2.5 +1.7 94 -1 -1 1011.8 994.6
03 20.11 Ю 2-3
{5}
4000 м слабая морось {дождь} 10/10 300 м
[Frnb Ns]
+3.4 +2.7 95 0 0 1011.6 994.4 +0.1 3
06 20.11 Ю 2-2
{4}
4000 м слабый дождь 10/10 300 м
[Frnb Ns]
+3.8 +3.1 95 +1 +1 1012.8 995.6
09 20.11 З 1-2
{3}
4000 м слабый дождь 10/10 300 м
[Frnb Ns]
+4.2 +3.2 93 +3 +3 1013.5 996.5
12 20.11 СЗ 1-2
{3}
10 км дымка {дождь} 10/10 300 м
[Sc]
+3.8 +2.8 93 +2 +2 1013.8 996.6
15 20.11 СВ 1-2
{3}
4000 м слабая морось {дождь} 10/10 300 м
[Sc]
+3.4 +2.7 95 +2 +2 1014.0 996.8 +4.5 4
18 20.11 СВ 2-3
{4}
4000 м слабый дождь {морось} 10/9 300 м
[Frnb As op]
+3.2 +2.2 93 0 0 1011.7 994.5
21 20.11 В 3-5
{7}
4000 м дымка {дождь} 10/9 300 м
[Frnb As op]
+4.6 +3.9 95 +1 +1 1009.3 992.4
00 21.11 ЮВ 4-6
{6}
4000 м морось {дождь} 10/9 300 м
[Frnb As op]
+5.1 +4.2 94 +1 +1 1006.9 990.0
03 21.11 Ю 4-8
{11}
10 км в посл. час дождь {морось} 10/9 300 м
[Frnb As op]
+4.6 +3.1 90 0 0 1004.8 987.9 +3.2 5
06 21.11 ЮВ 4-8
{10}
4000 м слабый дождь {морось} 10/10 300 м
[Frnb Ns]
+3.0 +1.7 91 -2 -2 1005.1 988.0 +3.0
09 21.11 ЮВ 3-5
{8}
4000 м слабый дождь 10/10 300 м
[Frnb Ns]
+2.8 +1.8 93 -1 -1 1005.1 988.0
12 21.11 ЮВ 3-5
{8}
4000 м слабый дождь 10/10 300 м
[Frnb Ns]
+3.1 +2.1 93 -1 -1 1004.5 987.5
15 21.11 ЮВ 3-4
{6}
4000 м морось {дождь} 10/10 300 м
[Frnb Ns]
+3.3 +2.3 93 -1 -1 1004.9 987.8 +4.7 10
18 21.11 ЮВ 2-4
{5}
4000 м слабый дождь {морось} 10/10 300 м
[Frnb Ns]
+3.2 +2.4 94 0 0 1004.8 987.7
21 21.11 ЮВ 2-3
{4}
4000 м дымка {дождь} 10/10 300 м
[St]
+3.2 +2.4 94 0 0 1004.3 987.3
00 22.11 Ю 3-3
{4}
4000 м дымка {дождь} 10/10 300 м
[St]
+2.8 +2.0 94 -1 -1 1004.7 987.6
03 22.11 ЮВ 2-4
{6}
4000 м дымка 10/10 300 м
[Frnb Ns]
+2.0 +1.2 94 -1 -1 1004.1 986.9 +2.0 2
06 22.11 ЮВ 2-4
{5}
4000 м дымка 10/6 300 м
[St As trans]
+1.2 +0.1 92 -2 -2 1003.1 986.0
09 22.11 ЮВ 2-3
{6}
10 км 10/10 300 м
[St]
+1.7 +0.1 89 -2 -2 1002.8 985.7
12 22.11 ЮВ 2-3
{4}
2000 м слабая морось 10/10 300 м
[St]
+1.6 +0.5 92 -2 -2 1001.5 985.4
15 22.11 ЮВ 1-2
{4}
1000 м слабая морось 10/10 300 м
[Frnb Ns]
+1.6 +0.8 94 -0 -0 1002.4 985.3 +2.0 0.4
18 22.11 СЗ 2-3
{3}
1000 м слабая морось 10/10 300 м
[Frnb Ns]
+1.5 +0.7 94 -2 -2 1003.3 986.2
21 22.11 СЗ 3-5
{6}
1000 м дымка {морось} 10/10 300 м
[St]
+0.4 -0.5 94 -4 -4 1004.0 986.9
00 23.11 СЗ 4-6
{6}
1000 м дымка {морось} 10/10 300 м
[St]
-0.3 -1.2 94 -6 -6 1005.4 988.1
03 23.11 СЗ 4-6
{7}
4000 м слабый снег 10/10 300 м
[Frnb Ns]
-1.2 -2.4 92 -7 -7 1006.5 989.2 -1.2 0.6
06 23.11 СЗ 4-6
{8}
4000 м слабый снег 10/10 300 м
[Frnb Ns]
-2.4 -3.6 91 -8 -8 1008.6 991.2 -2.4
09 23.11 СЗ 4-7
{9}
2000 м слабый снег {метель} 10/10 300 м
[Frnb Ns]
-2.4 -4.0 89 -8 -8 1009.8 992.4
12 23.11 СЗ 3-6
{8}
4000 м слабый снег {метель} 10/10 300 м
[Frnb Ns]
-2.5 -4.4 87 -8 -8 1012.1 994.6
15 23.11 С 2-5
{7}
10 км {снег, метель} 10/9 300 м
[Frnb As op]
-2.8 -4.8 86 -7 -7 1014.8 997.3 -1.2 2
18 23.11 СЗ 3-5
{6}
10 км в посл. час снег 10/10 300 м
[St]
-3.5 -5.3 87 -9 -9 1017.4 999.6
21 23.11 С 2-3
{6}
10 км 10/8 300 м
[St As trans]
-3.7 -5.5 87 -8 -8 1019.7 1001.9
00 24.11 СЗ 2-3
{5}
10 км 10/6 600 м
[Sc Ac As]
-3.9 -5.8 87 -8 -8 1021.4 1003.6
03 24.11 СЗ 2-3
{4}
10 км 10/10 300 м
[St]
-4.2 -6.1 87 -8 -8 1022.8 1005.0 -4.2 0.4
06 24.11 СЗ 2-4
{5}
20 км 10/8 300 м
[St As op]
-4.3 -6.2 87 -9 -9 1023.7 1005.9 -4.4

 

Местоположение метеостанции Темников (Мордовия, Россия): широта 54.63 долгота 43.23 высота над уровнем моря 139 м.

В архиве по умолчанию представлена погода в Темникове за последнюю неделю. Архивные данные за месяц целиком и за предыдущие месяцы, начиная с января 2011 года, Вы можете получить, выбрав интересующий диапазон дат из раскрывающегося списка и нажав кнопку "Ввод!".

Внимание! Время в таблицах - всемирное. Для получения местного времени необходимо прибавить поправку, которая в Темникове равна 3 ч.

Смотрите также архив погоды в соседних городах и на ближайших метеорологических станциях:

Погода в Краснослободске (Мордовия, Россия) (41 км)
Погода в Торбеево (Мордовия, Россия) (61 км)
Погода в Сасово (Рязанская область, Россия) (87 км)
Погода в Арзамасе (Нижегородская область, Россия) (89 км)
Погода в Лукоянове (Нижегородская область, Россия) (93 км)
Погода в Елатьме (Рязанская область, Россия) (100 км)
Погода в Выксе (Нижегородская область, Россия) (105 км)
Погода в Инсаре (Мордовия, Россия) (113 км)
Погода в Муроме (Владимирская область, Россия) (132 км)
Погода в Земетчино (Пензенская область, Россия) (134 км)

Пояснения к столбцам:

Ветер - указаны скорость ветра в м/с - средняя за 10 мин, порывы в срок и между сроками (в фигурных скобках) и направление, откуда дует ветер: С - северный, СВ - северо-восточный, В - восточный, ЮВ - юго-восточный, Ю - южный, ЮЗ - юго-западный, З - западный, СЗ - северо-западный.
Видимость - горизонтальная дальность видимости в метрах или километрах. При видимости от 1 до 10 км при отсутствии осадков обычно наблюдается дымка, при ухудшении видимости до 1 км и менее - туман. В сухую погоду видимость может ухудшаться дымом, пылью или мглою.
Явления - указаны атмосферные явления, наблюдавшиеся в срок или в последний час перед сроком; фигурными скобками обозначены явления, наблюдавшиеся между сроками (за 1-3 часа до срока); квадратными скобками обозначены град или гололедные отложения с указанием их диаметра в мм.
Облачность - указаны через наклонную черту общая и нижняя облачность в баллах и высота нижней границы облаков в метрах; квадратными скобками обозначены формы облаков: Ci - перистые, Cs - перисто-слоистые, Cc - перисто-кучевые, Ac - высококучевые, As - высокослоистые, Sc - слоисто-кучевые, Ns - слоисто-дождевые, Cu - кучевые, Cb - кучево-дождевые. Подробнее классификацию облаков см. в Атласе облаков (PDF).
T - Температура воздуха - температура, измеренная на высоте 2 м над землей.
Td - Температура точки росы - температура, при понижении до которой содержащийся в воздухе водяной пар достигнет насыщения.
f - Относительная влажность воздуха - влажноcть воздуха, измеренная на высоте 2 м над землей.
Te - Эффективная температура - температура, которую ощущает одетый по сезону человек в тени. Характеристика душности погоды. При расчете учитывается влияние влажности воздуха и скорости ветра на теплоощущения человека.
Tes - Эффективная температура на солнце - температура, которую ощущает человек, с поправкой на солнечный нагрев. Характеристика знойности погоды. Зависит от высоты солнца над горизонтом, облачности и скорости ветра. Ночью, в пасмурную погоду, а также при ветре 12 м/с и более поправка равна нулю.
P - Атмосферное давление - приведенное к уровню моря атмосферное давление.
Po - Атмосферное давление - измеренное на уровне метеостанции атмосферное давление.
Tmin - Минимальная температура - минимум температуры воздуха на высоте 2 м над землей.
Tmax - Максимальная температура - максимум температуры воздуха на высоте 2 м над землей.
R - Количество осадков - Количество выпавших осадков за период времени, мм. При наведении курсора мыши на число - период времени, за который выпало указанное количество осадков.
R24 - Количество осадков - Количество выпавших осадков за 24 часа, мм.
S - Снежный покров - Высота снежного покрова, см. При наведении курсора мыши на число - состояние снежного покрова и степень покрытия местности в баллах.